This demonstration page uses our WeatherBlox Daily Observations layout. Learn more.

Left ArrowRight Arrow

30.21309, -93.2044

Hourly Observations for September 25, 2022

Temp ( °F °C ) Dew Point ( °F °C ) Humidity (%) Winds ( mph kmh ) Pressure ( in mb ) Visibility ( mi km ) Precip ( " mm )
12:15 am 00:15 Clear 80 26.9 72 22 75 75 WNW 5 7 29.96 1014 10 16 0.00 0.00
12:35 am 00:35 Clear 81 27 72 22.2 75 75 W 6 9 29.96 1014 10 16 0.00 0.00
12:55 am 00:55 Clear 80 26.9 72 22.2 76 76 SW 6 9 29.95 1014 10 16 0.00 0.00
1:15 am 01:15 Clear 80 26.7 72 22 75 75 WSW 7 11 29.94 1014 10 16 0.00 0.00
1:35 am 01:35 Clear 80 26.6 71 21.9 75 75 SW 5 7 29.94 1014 10 16 0.00 0.00
1:55 am 01:55 Clear 80 26.5 71 21.9 76 76 NW 3 6 29.95 1014 10 16 0.00 0.00
2:15 am 02:15 Clear 79 26 72 22 79 79 W 6 9 29.95 1014 10 16 0.00 0.00
2:35 am 02:35 Clear 80 26.6 71 21.7 75 75 NW 3 6 29.95 1014 10 16 0.00 0.00
2:55 am 02:55 Clear 78 25.8 71 21.7 78 78 NNW 5 7 29.95 1014 10 16 0.00 0.00
3:15 am 03:15 Clear 76 24.5 72 22 86 86 N 5 7 29.95 1014 10 16 0.00 0.00
3:35 am 03:35 Clear 76 24.4 71 21.8 85 85 NNW 3 6 29.95 1014 10 16 0.00 0.00
3:55 am 03:55 Clear 75 24 71 21.7 87 87 N 3 6 29.95 1014 10 16 0.00 0.00
4:15 am 04:15 Clear 75 24 71 21.8 88 88 N 3 6 29.95 1014 10 16 0.00 0.00
4:35 am 04:35 Clear 75 24 71 21.7 87 87 NNW 3 6 29.95 1014 10 16 0.00 0.00
4:55 am 04:55 Clear 75 24 71 21.8 88 88 NW 3 6 29.95 1014 10 16 0.00 0.00
5:15 am 05:15 Clear 74 23.4 70 21.3 88 88 NW 6 9 29.96 1015 10 16 0.00 0.00
5:35 am 05:35 Clear 74 23.6 71 21.4 87 87 NW 6 9 29.96 1015 10 16 0.00 0.00
6:00 am 06:00 Mostly Clear 75 24 70 21 83 83 NW 6 9 29.96 1015 10 16 0.00 0.00
6:51 am 06:51 Mostly Clear 73 23 70 21 89 89 NNW 5 7 29.96 1015 10 16 0.00 0.00
7:49 am 07:49 Mostly Sunny 75 24 70 21 83 83 NW 7 11 29.98 1015 10 16 0.00 0.00
8:50 am 08:50 Mostly Sunny 79 26 73 23 84 84 NW 7 11 29.98 1015 10 16 0.00 0.00
9:51 am 09:51 Mostly Sunny 82 28 72 22 70 70 NW 10 17 30.00 1016 10 16 0.00 0.00
10:52 am 10:52 Mostly Sunny 84 29 72 22 66 66 NW 8 13 30.00 1016 10 16 0.00 0.00
11:50 am 11:50 Mostly Sunny 84 29 70 21 62 62 NNW 6 9 29.99 1016 10 16 0.00 0.00
12:46 pm 12:46 Mostly Sunny 88 31 66 19 49 49 NNW 6 9 29.97 1015 10 16 0.00 0.00
1:47 pm 13:47 Mostly Sunny 91 33 66 19 44 44 N 5 7 29.94 1014 10 16 0.00 0.00
2:45 pm 14:45 Mostly Sunny 93 34 66 19 41 41 NW 7 11 29.92 1013 10 16 0.00 0.00
3:50 pm 15:50 Mostly Sunny 93 34 66 19 41 41 W 7 11 29.90 1012 10 16 0.00 0.00
4:45 pm 16:45 Mostly Sunny 93 34 66 19 41 41 NNW 5 7 29.89 1012 10 16 0.00 0.00
5:45 pm 17:45 Mostly Sunny 91 33 64 18 41 41 VRB 5 7 29.88 1012 10 16 0.00 0.00
6:45 pm 18:45 Mostly Sunny 91 33 64 18 41 41 Calm 29.89 1012 10 16 0.00 0.00
8:55 pm 20:55 Mostly Clear 82 28 72 22 70 70 Calm 29.91 1013 10 16 0.00 0.00
9:55 pm 21:55 Mostly Clear 81 27 72 22 74 74 Calm 29.93 1013 10 16 0.00 0.00
10:15 pm 22:15 Clear 82 28 71 21.8 69 69 WSW 6 9 29.93 1013 10 16 0.00 0.00
10:35 pm 22:35 Clear 82 27.9 72 22.3 72 72 WSW 6 9 29.93 1013 10 16 0.00 0.00
10:55 pm 22:55 Clear 82 28 73 22.7 73 73 WSW 6 9 29.93 1013 10 16 0.00 0.00
11:20 pm 23:20 Clear 82 28 72 22.3 71 71 W 6 9 29.93 1013 10 16 0.00 0.00
11:35 pm 23:35 Clear 81 27.3 72 22.2 74 74 WSW 3 6 29.93 1013 10 16 0.00 0.00
11:55 pm 23:55 Clear 76 24.4 71 21.7 85 85 Calm 29.94 1014 10 16 0.00 0.00

Powered by AerisWeather